Burns Flat, OK

4:37 PM CST on February 24, 2017 (GMT -0600)
Clinton-Sherman

Weather History for KCSM - February, 2014

Change the Weather History Date:

Tuesday, February 18, 2014

  Actual Average Record
Temperature  
Mean Temperature 56 °F -  
Max Temperature 77 °F 52 °F 79 °F (2016)
Min Temperature 35 °F 32 °F 10 °F (2006)
Degree Days  
Heating Degree Days 9    
Growing Degree Days 6 (Base 50)    
Moisture  
Dew Point 25 °F    
Average Humidity 35    
Maximum Humidity 64    
Minimum Humidity 15    
Precipitation  
Precipitation 0.00 in - - ()
Sea Level Pressure  
Sea Level Pressure 29.91 in    
Wind  
Wind Speed 15 mph (SSW)    
Max Wind Speed 31 mph    
Max Gust Speed 39 mph    
Visibility 10 miles    
Events      
Averages and records for this station are not official NWS values.
T = Trace of Precipitation, MM = Missing Value Source: NWS Daily Summary

Daily Weather History Graph

Daily Weather History Graph

Search for Another Location

Airport or City:

Trip Planner

Search our weather history database for the weather conditions in past years. The results will help you decide how hot, cold, wet, or windy it might be!

Date:

Astronomy

Feb. 18, 2014 Rise Set
Actual Time 7:19 AM CST 6:22 PM CST
Civil Twilight 6:53 AM CST 6:47 PM CST
Nautical Twilight 6:24 AM CST 7:17 PM CST
Astronomical Twilight 5:54 AM CST 7:47 PM CST
Moon 10:06 PM CST (2/18) 9:02 AM CST (2/18)
Length of Visible Light 11h 54m
Length of Day
11h 02m
Waning Gibbous, 87% of the Moon is Illuminated
Feb 18
Waning Gibbous
Feb 22
Last Quarter
Mar 1
New
Mar 8
First Quarter
Mar 16
Full

Hourly Weather History & Observations

Time (CST) Temp. Windchill Dew Point Humidity Pressure Visibility Wind Dir Wind Speed Gust Speed Precip Events Conditions
12:53 AM 35.1 °F 27.9 °F 24.1 °F 64% 30.08 in 10.0 mi SW 9.2 mph - N/A   Clear
1:53 AM 41.0 °F 32.8 °F 24.1 °F 51% 30.04 in 10.0 mi SSW 16.1 mph - N/A   Clear
2:53 AM 41.0 °F 32.2 °F 24.1 °F 51% 30.00 in 10.0 mi SSW 18.4 mph - N/A   Clear
3:53 AM 43.0 °F 35.1 °F 23.0 °F 45% 29.97 in 10.0 mi SSW 17.3 mph - N/A   Clear
4:53 AM 39.0 °F 29.6 °F 23.0 °F 53% 29.95 in 10.0 mi SSW 18.4 mph - N/A   Clear
5:53 AM 39.0 °F 33.4 °F 23.0 °F 53% 29.97 in 10.0 mi SSW 8.1 mph - N/A   Clear
6:53 AM 37.0 °F 28.5 °F 24.1 °F 59% 29.96 in 10.0 mi SSW 13.8 mph - N/A   Clear
7:53 AM 44.1 °F 35.4 °F 24.1 °F 45% 29.96 in 10.0 mi SSW 21.9 mph - N/A   Clear
8:53 AM 48.0 °F - 25.0 °F 41% 29.94 in 10.0 mi SSW 26.5 mph 34.5 mph N/A   Clear
9:53 AM 55.0 °F - 24.1 °F 30% 29.92 in 10.0 mi SSW 29.9 mph 39.1 mph N/A   Clear
10:53 AM 57.9 °F - 23.0 °F 26% 29.90 in 10.0 mi SSW 31.1 mph 35.7 mph N/A   Clear
11:53 AM 62.1 °F - 25.0 °F 24% 29.87 in 10.0 mi SW 25.3 mph 33.4 mph N/A   Clear
12:53 PM 66.0 °F - 28.0 °F 24% 29.83 in 10.0 mi SW 25.3 mph 35.7 mph N/A   Clear
1:53 PM 71.1 °F - 28.0 °F 20% 29.81 in 10.0 mi SW 18.4 mph - N/A   Clear
2:53 PM 73.9 °F - 27.0 °F 18% 29.78 in 10.0 mi SW 15.0 mph 23.0 mph N/A   Clear
3:53 PM 77.0 °F - 26.1 °F 15% 29.77 in 10.0 mi SSW 13.8 mph - N/A   Clear
4:53 PM 77.0 °F - 27.0 °F 16% 29.78 in 10.0 mi SSW 9.2 mph - N/A   Clear
5:53 PM 70.0 °F - 33.1 °F 26% 29.81 in 10.0 mi Calm Calm - N/A   Clear
6:53 PM 57.0 °F - 28.0 °F 33% 29.86 in 10.0 mi Calm Calm - N/A   Clear
7:53 PM 64.9 °F - 30.0 °F 27% 29.88 in 10.0 mi Calm Calm - N/A   Clear
8:53 PM 55.9 °F - 21.0 °F 26% 29.91 in 10.0 mi NE 10.4 mph - N/A   Clear
9:53 PM 54.0 °F - 23.0 °F 30% 29.94 in 10.0 mi NE 10.4 mph - N/A   Clear
10:53 PM 51.1 °F - 23.0 °F 33% 29.96 in 10.0 mi NNE 10.4 mph - N/A   Clear
11:53 PM 48.0 °F - 23.0 °F 37% 29.97 in 10.0 mi North 12.7 mph - N/A   Clear